Tracking 29892 objects as of 21-Nov-2024
HD Live streaming from Space Station
objects crossing your sky now

SL-6 R/B(2)

Track SL-6 R/B(2) now!


NORAD ID: 22181
Int'l Code: 1992-067D
Perigee: 2,406.2 km
Apogee: 37,959.8 km
Inclination: 64.1 °
Period: 717.7 minutes
Semi major axis: 26553 km
RCS: 7.37 m2 (large)
Launch date: October 14, 1992
Source: Commonwealth of Independent States (former USSR) (CIS)
Launch site: PLESETSK MISSILE AND SPACE COMPLEX (PKMTR)

Note: This is a ROCKET BODY
Your satellite tracking list
Your tracking list is empty




NASA's NSSDC Master Catalog

Two Line Element Set (TLE):
1 22181U 92067D   24324.66262864 -.00000869  00000-0  00000-0 0  9997
2 22181  64.0984 214.7807 6694588 259.2080  24.6300  2.00635808231911
Source of the keplerian elements: AFSPC